User: anonymous   Login
Location: Unspecified
(0.0000°N, 0.0000°E)
Time: 00:14:03
(UTC+00:00)
Language:

CUBESAT XI-V - Orbit

View from above orbital plane
View from above orbital plane
View from above satellite
View from above satellite

Ground track
Ground track

The orbit data is extracted from the following two-line orbital elements,

1 28895U 05043F   17328.37254786 +.00000235 +00000-0 +54039-4 0  9992
2 28895 097.8825 123.4749 0016762 001.7022 358.4235 14.63476143643683
Epoch (UTC): 24 November 2017 08:56:28
Eccentricity: 0.0016762
inclination: 97.8825°
perigee height: 670 km
apogee height: 694 km
right ascension of ascending node: 123.4749°
argument of perigee: 1.7022°
revolutions per day: 14.63476143
mean anomaly at epoch: 358.4235°
orbit number at epoch: 64368

The dashed part of the orbit path shows where the satellite is in the earth's shadow,  

DLR